Minneapolis Flying Cloud, MN

4:59 PM CDT on March 26, 2017 (GMT -0500)
Flying Cloud

Weather History for KFCM - June, 2014

Change the Weather History Date:

Tuesday, June 24, 2014

  Actual Average Record
Temperature  
Mean Temperature 72 °F -  
Max Temperature 82 °F 78 °F 88 °F (2002)
Min Temperature 63 °F 58 °F 50 °F (2004)
Cooling Degree Days 8    
Growing Degree Days 22 (Base 50)    
Moisture  
Dew Point 61 °F    
Average Humidity 67    
Maximum Humidity 93    
Minimum Humidity 44    
Precipitation  
Precipitation 0.01 in - - ()
Sea Level Pressure  
Sea Level Pressure 29.89 in    
Wind  
Wind Speed 4 mph (WNW)    
Max Wind Speed 12 mph    
Max Gust Speed 20 mph    
Visibility 10 miles    
Events Rain    
Averages and records for this station are not official NWS values.
T = Trace of Precipitation, MM = Missing Value Source: NWS Daily Summary

Daily Weather History Graph

Daily Weather History Graph

Search for Another Location

Airport or City:

Trip Planner

Search our weather history database for the weather conditions in past years. The results will help you decide how hot, cold, wet, or windy it might be!

Date:

Astronomy

Jun. 24, 2014 Rise Set
Actual Time 5:28 AM CDT 9:03 PM CDT
Civil Twilight 4:51 AM CDT 9:41 PM CDT
Nautical Twilight 4:01 AM CDT 10:30 PM CDT
Astronomical Twilight 2:56 AM CDT 11:35 PM CDT
Moon 3:41 AM CDT (6/24) 6:38 PM CDT (6/24)
Length of Visible Light 16h 49m
Length of Day
15h 35m
Waning Crescent, 7% of the Moon is Illuminated
Jun 24
Waning Crescent
Jun 27
New
Jul 5
First Quarter
Jul 12
Full
Jul 18
Last Quarter

Hourly Weather History & Observations

Time (CDT) Temp. Heat Index Dew Point Humidity Pressure Visibility Wind Dir Wind Speed Gust Speed Precip Events Conditions
12:53 AM 66.9 °F - 61.0 °F 81% 29.86 in 10.0 mi Calm Calm - N/A   Clear
1:53 AM 66.0 °F - 60.1 °F 81% 29.86 in 10.0 mi WSW 3.5 mph - N/A   Clear
2:53 AM 64.9 °F - 60.1 °F 84% 29.87 in 10.0 mi WSW 4.6 mph - N/A   Clear
3:53 AM 64.0 °F - 61.0 °F 90% 29.87 in 10.0 mi WSW 3.5 mph - N/A   Clear
4:53 AM 63.0 °F - 61.0 °F 93% 29.87 in 10.0 mi WSW 3.5 mph - N/A   Clear
5:53 AM 64.0 °F - 61.0 °F 90% 29.87 in 10.0 mi WSW 3.5 mph - N/A   Clear
6:53 AM 66.0 °F - 62.1 °F 87% 29.88 in 10.0 mi SW 3.5 mph - N/A   Clear
7:53 AM 69.1 °F - 63.0 °F 81% 29.88 in 10.0 mi WSW 3.5 mph - N/A   Clear
9:53 AM 75.9 °F - 64.9 °F 69% 29.89 in 10.0 mi SW 6.9 mph - N/A   Clear
10:53 AM 79.0 °F - 61.0 °F 54% 29.89 in 10.0 mi West 3.5 mph - N/A   Clear
11:53 AM 81.0 °F 81.7 °F 61.0 °F 50% 29.90 in 10.0 mi West 9.2 mph - N/A   Scattered Clouds
12:53 PM 82.0 °F 82.4 °F 60.1 °F 47% 29.90 in 10.0 mi NW 10.4 mph - N/A   Partly Cloudy
1:53 PM 82.0 °F 82.4 °F 60.1 °F 47% 29.88 in 10.0 mi Variable 6.9 mph - N/A   Partly Cloudy
2:53 PM 82.0 °F 82.1 °F 59.0 °F 45% 29.89 in 10.0 mi WNW 10.4 mph - N/A   Mostly Cloudy
3:53 PM 82.0 °F 82.4 °F 60.1 °F 47% 29.89 in 10.0 mi NW 11.5 mph - N/A   Mostly Cloudy
4:53 PM 82.0 °F 82.4 °F 60.1 °F 47% 29.88 in 10.0 mi WNW 8.1 mph 19.6 mph N/A   Scattered Clouds
5:53 PM 82.0 °F 82.0 °F 57.9 °F 44% 29.89 in 10.0 mi WNW 6.9 mph - N/A   Partly Cloudy
6:53 PM 80.1 °F 80.6 °F 57.9 °F 47% 29.89 in 9.0 mi NW 9.2 mph - N/A   Clear
7:53 PM 77.0 °F - 59.0 °F 54% 29.89 in 10.0 mi North 10.4 mph - N/A   Scattered Clouds
8:53 PM 73.9 °F - 62.1 °F 66% 29.91 in 9.0 mi NE 4.6 mph - N/A   Mostly Cloudy
9:53 PM 72.0 °F - 63.0 °F 73% 29.92 in 10.0 mi Calm Calm - 0.00 in Rain Light Rain
10:53 PM 69.1 °F - 63.0 °F 81% 29.93 in 10.0 mi Calm Calm - 0.01 in   Scattered Clouds
11:53 PM 68.0 °F - 63.0 °F 84% 29.94 in 10.0 mi NNE 3.5 mph - N/A   Clear